GFSNGP_prec_cthk_000.txt.gz
RH
40 38 39 47 49 50 52 61 70 63 61 63 62 61 60 63 68 69 72 73 72 71 74 78 77 75 76 81 75 74 65 59 50 47 49 54 55 56 60 62 63 67 66 65
45 43 43 46 48 54 58 63 66 68 67 62 62 64 67 70 72 75 76 74 72 73 75 73 75 76 75 76 74 58 54 43 44 47 50 54 58 59 58 60 62 58 53 47
58 52 51 59 51 53 57 64 65 67 64 64 69 71 72 73 74 77 79 75 68 66 70 76 79 78 70 63 53 41 42 42 47 53 55 56 59 61 61 59 51 39 35 36
69 67 66 52 51 53 56 59 61 61 64 67 70 74 76 75 77 79 77 75 71 71 73 72 69 66 56 49 42 43 45 46 53 55 57 61 64 66 61 45 36 36 37 40
76 69 54 51 52 57 60 58 61 66 69 73 74 73 80 82 77 79 78 75 74 67 60 58 62 53 50 45 43 45 48 53 58 61 66 69 75 62 43 38 35 41 49 53
79 84 78 62 58 59 61 68 74 75 79 84 82 85 86 87 88 79 73 65 56 50 48 53 57 49 50 52 51 47 49 54 57 64 71 78 56 39 40 41 46 52 59 62
78 85 73 67 67 68 81 84 82 87 87 89 89 90 89 82 74 62 58 55 52 52 51 50 47 47 52 53 47 47 52 58 64 73 80 55 41 41 45 49 53 57 61 68
81 86 89 74 77 87 80 79 86 88 87 87 87 85 79 64 56 57 56 53 46 42 39 39 40 43 45 48 50 54 62 65 69 79 61 44 42 44 49 54 57 65 76 82
76 71 79 82 86 82 84 86 89 91 90 87 79 64 56 54 55 50 47 44 42 41 38 35 45 51 51 49 54 62 67 67 76 70 46 44 46 50 53 57 63 73 80 85
79 73 83 88 85 85 87 88 88 91 84 69 60 54 52 49 50 46 40 36 34 33 34 38 43 57 67 61 63 71 70 76 79 50 42 41 46 52 57 61 66 76 81 86
80 81 84 83 86 85 90 92 91 77 64 57 50 47 48 47 40 39 39 37 35 37 39 38 43 52 59 69 79 76 75 83 55 41 43 45 50 54 58 63 65 71 77 90
90 88 88 88 86 91 90 79 71 61 58 52 50 51 46 41 43 41 37 36 38 39 42 45 51 58 69 78 81 78 84 62 43 41 45 51 56 58 61 62 64 64 79 90
90 91 90 92 88 84 76 68 65 61 56 54 50 47 47 43 37 36 40 44 47 48 51 57 63 72 80 82 88 84 66 42 41 41 50 55 56 62 66 67 65 70 87 81
92 92 94 92 82 68 67 63 61 58 53 49 47 44 39 37 37 39 41 44 49 54 63 64 74 80 87 93 86 71 44 36 39 45 52 56 61 63 66 64 67 78 88 78
92 92 88 74 67 64 60 58 53 49 47 44 40 39 40 39 37 37 41 48 55 62 68 72 82 91 90 89 74 50 42 43 42 45 51 56 63 65 67 66 65 74 85 83
85 73 66 63 58 51 48 46 44 42 39 33 32 32 33 35 37 42 45 53 58 64 69 78 87 89 89 78 59 48 45 45 43 48 54 57 65 69 70 68 64 69 76 80
71 65 55 47 46 43 42 41 38 32 29 31 30 30 31 36 39 44 49 57 64 66 72 82 87 89 79 59 51 46 45 46 44 53 56 58 65 72 73 70 64 63 67 74
54 46 44 45 42 42 42 35 29 30 32 32 31 33 37 41 47 49 57 65 68 67 74 82 85 80 63 53 49 46 46 46 49 57 58 60 65 72 75 73 68 64 62 66
43 44 43 43 44 39 31 29 31 32 32 33 35 36 40 44 50 56 64 71 72 67 73 80 82 71 56 50 47 46 46 48 54 61 59 60 64 73 77 75 71 69 66 63
45 46 46 43 35 32 32 33 33 32 34 38 41 42 41 44 53 63 68 73 78 73 75 84 78 65 57 50 46 46 48 51 57 61 60 62 65 74 79 77 75 70 69 67
47 45 40 31 30 33 34 36 35 36 37 42 45 45 46 51 61 69 72 76 78 76 84 86 74 63 58 52 49 47 49 53 60 59 61 64 70 76 77 75 73 71 69 70
39 31 30 34 35 31 34 36 38 39 41 43 46 47 51 57 69 74 77 78 77 82 87 83 72 64 61 53 56 51 52 57 57 60 61 66 69 71 73 71 70 69 70 71
30 34 37 37 37 35 34 38 38 41 44 47 47 53 60 68 76 80 80 82 81 82 86 81 74 68 64 60 57 57 59 55 58 61 62 65 66 67 71 71 70 70 72 73
36 39 39 40 39 39 40 38 42 45 47 48 51 58 65 69 76 85 85 85 87 87 89 83 79 73 71 67 60 57 53 55 60 62 63 66 66 68 71 73 71 71 72 72
39 38 39 41 42 47 47 46 45 47 52 56 56 60 66 76 82 83 86 88 89 86 86 89 88 85 75 64 56 52 55 58 61 63 65 69 71 72 72 72 71 70 70 71
40 42 44 46 49 53 56 55 52 55 59 59 61 65 65 73 84 88 90 93 94 92 90 93 92 89 77 64 58 58 58 60 62 63 64 69 74 75 73 71 71 71 70 70
43 45 48 52 60 65 68 70 68 65 66 67 66 70 70 72 80 88 93 94 95 93 93 95 96 92 83 68 60 58 59 61 63 65 67 74 78 78 74 72 72 74 75 73

GFSNGP_prec_cthk_003.txt.gz
RH
35 34 35 40 42 43 46 51 60 60 64 65 64 64 65 67 68 69 71 73 72 70 67 65 66 70 73 78 70 66 61 54 47 38 39 41 46 48 50 53 58 59 59 60
39 36 37 40 41 41 46 53 56 59 60 64 64 64 65 68 68 72 70 72 73 70 70 70 66 66 72 71 67 63 59 52 45 44 45 49 50 50 54 57 59 60 54 52
48 41 44 54 44 45 50 54 59 62 61 61 66 71 72 76 76 75 75 74 73 71 65 64 58 57 60 67 65 59 59 57 56 55 56 56 57 57 63 70 64 54 53 51
58 55 65 53 46 48 49 54 56 58 62 67 70 74 75 78 79 74 70 68 65 62 56 51 49 52 60 65 62 64 64 60 63 62 64 62 64 66 72 64 57 54 53 55
64 56 48 49 50 53 54 54 58 66 73 71 73 75 77 81 72 68 63 60 53 53 49 46 47 49 56 62 64 69 71 72 73 65 71 72 70 75 69 60 60 53 54 57
66 74 71 61 59 60 61 67 75 78 76 74 74 75 72 70 68 64 53 51 53 55 52 49 46 42 40 49 63 66 70 59 58 66 75 79 77 79 64 61 58 52 53 59
65 75 63 60 63 64 75 81 84 80 76 77 78 79 74 68 59 54 51 55 55 53 45 42 35 34 42 52 66 75 71 65 73 78 81 80 83 70 59 57 57 54 54 58
70 79 78 67 70 79 80 82 85 82 82 81 84 78 73 59 52 51 50 50 48 44 42 34 37 42 42 48 66 80 80 79 86 85 81 85 68 61 58 57 56 56 58 59
69 67 71 76 83 87 86 86 87 86 88 87 80 75 64 55 51 51 51 45 44 42 39 40 43 47 50 51 66 67 84 88 88 83 88 67 54 55 57 57 56 58 58 62
69 66 72 74 84 85 87 85 82 82 85 76 68 60 57 54 55 50 45 43 40 40 42 51 54 54 58 56 63 71 80 84 84 90 71 46 56 58 58 54 56 60 55 68
70 73 74 80 88 89 87 81 78 79 71 62 58 59 59 60 52 48 45 40 42 49 53 54 58 54 62 64 74 78 83 87 86 76 55 48 50 56 53 57 57 57 52 70
78 78 81 90 89 92 91 88 80 66 61 59 59 61 60 53 49 45 41 43 48 49 52 53 55 60 63 72 78 83 87 82 80 54 44 43 53 54 55 57 57 53 53 67
81 86 87 88 89 94 86 80 67 58 61 60 57 56 52 49 44 41 43 42 44 46 49 54 56 60 66 77 82 80 80 77 56 49 47 47 51 53 59 63 60 56 54 63
83 83 83 88 91 83 73 61 58 58 56 54 51 48 43 38 36 35 37 41 44 46 49 55 62 65 73 82 84 84 72 60 50 52 49 46 51 53 59 63 66 64 58 60
79 83 87 86 76 69 61 56 50 49 49 45 42 40 35 33 32 34 38 43 46 48 55 61 65 70 81 83 85 78 60 52 51 51 47 46 54 55 60 65 68 67 63 59
80 83 83 76 64 54 50 48 47 45 43 37 34 29 31 32 34 36 40 48 51 52 61 65 64 69 81 85 80 72 63 50 52 51 48 51 58 56 61 66 69 68 67 60
85 76 70 57 49 48 48 47 45 40 34 29 28 27 27 30 32 36 39 43 52 59 66 70 67 71 79 79 72 66 58 48 51 52 51 57 61 59 60 66 69 67 68 64
77 64 51 49 50 49 48 45 38 33 29 28 27 28 31 35 37 36 37 44 52 63 71 74 73 75 79 74 66 59 52 47 51 54 57 61 63 62 63 68 71 70 65 64
59 52 51 50 48 47 44 37 32 29 28 29 29 30 34 37 39 39 44 53 62 68 72 79 77 83 80 72 64 59 53 49 52 56 60 64 63 62 67 71 72 69 64 62
53 52 50 48 44 39 32 30 30 30 31 33 34 36 37 37 39 44 51 59 73 76 79 81 84 88 73 67 62 59 55 55 55 58 62 64 64 66 67 69 69 68 65 63
50 48 44 37 31 31 32 32 32 32 33 36 38 39 41 38 42 50 59 64 78 81 79 81 85 81 73 69 65 62 57 58 57 61 62 64 67 68 67 67 68 68 68 67
49 40 30 30 32 32 33 33 34 35 37 38 41 43 43 44 45 50 65 73 80 84 85 86 85 80 74 70 69 65 60 59 60 59 60 64 68 69 69 68 69 70 71 70
31 30 33 34 33 32 32 34 37 41 42 44 44 46 49 51 52 55 62 79 82 85 86 87 86 77 75 73 72 67 58 56 55 55 61 65 67 68 70 71 70 69 70 70
35 35 33 34 35 35 34 36 46 49 49 49 51 53 57 54 56 64 71 80 83 89 93 93 90 85 85 83 77 66 57 54 57 60 64 65 66 68 72 73 70 68 69 70
33 33 34 36 40 42 48 54 56 59 61 61 64 63 63 65 66 66 69 79 87 90 93 92 91 92 93 93 88 74 63 61 62 63 65 68 69 73 77 75 71 69 72 74
34 37 40 45 48 52 57 64 68 67 67 65 66 66 67 69 71 73 74 77 86 92 95 95 95 95 96 97 96 83 69 64 63 63 65 69 71 74 78 78 73 71 76 78
37 41 48 52 55 65 68 69 70 72 76 75 69 69 72 73 74 77 80 80 82 87 91 95 96 97 99 98 98 89 78 70 68 68 69 74 76 79 81 80 76 74 77 80

GFSNGP_prec_cthk_006.txt.gz
RH
30 29 29 30 32 36 40 44 54 51 56 62 66 66 64 62 62 65 64 66 68 65 61 58 53 51 50 52 55 58 67 70 55 48 47 44 45 47 50 49 50 55 57 54
33 30 30 31 32 35 37 43 48 54 56 66 66 60 64 62 66 66 67 67 65 60 56 57 52 50 46 48 53 60 59 53 51 67 83 76 79 69 57 58 60 64 60 56
43 36 37 51 43 39 45 49 53 60 61 65 65 67 69 65 65 66 68 63 59 57 58 52 47 42 45 45 41 44 46 55 60 78 86 85 73 63 70 67 69 73 59 58
50 47 53 41 38 43 46 49 54 58 67 74 72 71 69 70 72 73 68 60 59 52 49 50 46 46 40 35 30 33 47 62 71 72 73 86 61 71 76 78 82 61 57 60
56 48 37 36 42 46 51 52 56 63 68 73 74 70 71 73 74 70 63 59 52 46 48 46 47 45 40 34 36 43 48 48 75 73 90 77 72 76 82 87 62 56 58 62
57 59 52 43 51 52 55 60 68 71 74 74 71 72 71 71 68 64 58 50 46 50 50 49 44 41 36 37 41 44 48 52 76 82 95 89 74 80 90 66 54 57 55 52
59 59 50 43 50 54 64 70 72 78 79 77 75 76 74 73 68 54 49 52 53 48 46 43 40 37 41 42 44 51 56 54 72 87 96 76 79 87 68 51 55 51 51 54
57 61 59 51 57 65 70 75 80 81 79 76 76 73 71 64 55 51 56 53 48 45 42 37 36 44 50 46 41 45 52 62 69 73 76 77 88 80 48 50 51 54 55 53
51 50 50 59 62 66 72 80 82 88 81 76 74 69 63 55 54 60 57 49 44 43 39 37 48 52 55 49 46 50 54 65 70 75 83 88 84 44 44 50 52 55 56 52
51 43 48 57 66 72 80 84 86 84 81 78 75 68 60 56 59 54 48 42 42 39 37 41 41 48 51 49 52 55 64 73 80 85 87 81 49 43 47 50 52 56 56 50
47 46 53 65 70 79 82 87 90 89 83 79 71 66 59 55 50 47 45 44 40 37 40 38 40 46 47 48 55 60 70 75 77 81 78 56 44 44 46 50 53 57 57 54
52 56 60 71 81 84 88 89 88 84 78 72 71 61 52 49 45 41 38 34 32 33 36 37 41 44 48 54 59 68 72 73 77 69 56 50 50 45 45 51 54 56 57 55
51 60 70 81 85 83 81 80 77 71 68 67 55 52 47 43 38 35 30 29 32 33 37 40 45 49 57 62 64 74 75 75 64 55 55 55 51 44 46 53 55 57 58 56
64 76 81 80 82 81 78 72 70 66 60 51 49 46 40 35 33 30 28 30 31 33 36 39 47 57 69 68 71 75 79 69 57 51 50 51 49 46 51 54 55 61 61 59
78 81 82 81 82 80 74 68 61 52 50 48 45 40 36 33 28 26 28 30 32 33 36 42 50 62 72 75 74 76 73 70 57 49 49 52 50 50 56 56 57 62 66 64
83 85 83 81 78 72 62 53 51 49 47 44 37 33 31 26 25 27 28 33 33 30 37 49 58 68 74 77 77 77 71 68 60 51 50 52 52 55 59 57 60 64 66 63
87 81 83 82 73 58 50 50 49 47 43 37 32 29 26 26 26 27 29 31 33 38 49 59 65 71 77 79 83 78 74 67 56 51 51 54 56 61 60 61 63 64 65 61
85 85 81 69 56 52 50 50 47 43 37 33 30 28 26 28 29 29 31 32 35 42 56 64 70 73 77 83 86 77 66 61 55 54 55 57 60 62 62 64 65 63 62 61
81 75 65 57 54 51 49 44 40 36 34 31 29 27 29 30 31 33 35 38 44 49 59 69 74 75 78 83 74 67 63 61 57 57 61 61 63 61 66 67 65 64 62 61
69 62 57 52 50 46 41 34 36 36 32 31 31 32 31 32 35 36 39 44 50 56 65 71 76 78 80 76 67 63 65 64 61 59 62 64 60 62 68 68 64 62 62 62
64 57 53 50 41 33 33 37 34 30 30 32 36 36 37 36 40 45 47 48 51 60 72 77 78 79 82 76 70 70 69 65 60 56 59 59 60 64 67 67 65 65 64 63
56 52 44 35 34 36 34 32 31 31 32 35 41 45 45 47 49 49 59 61 57 62 71 77 81 83 85 78 76 75 74 69 59 56 55 58 63 67 65 66 67 65 63 61
50 40 37 37 35 31 29 30 32 34 38 45 51 55 57 59 64 64 56 63 63 67 72 79 84 87 87 85 83 80 78 73 63 59 59 61 63 64 65 68 69 67 64 62
41 38 35 32 31 31 31 34 40 46 51 55 63 64 65 65 65 73 70 68 67 69 73 80 88 89 89 89 90 92 91 84 71 64 61 62 63 66 68 71 73 72 67 64
35 33 32 32 33 34 39 47 52 59 69 71 70 71 74 78 76 71 73 73 71 73 75 80 86 90 91 91 94 97 97 95 83 72 68 66 66 71 74 77 79 77 73 69
35 34 35 37 40 45 50 57 63 67 70 65 68 77 78 81 82 81 79 76 74 76 79 83 87 91 93 96 97 98 98 98 95 83 73 71 71 73 78 81 83 84 81 77
37 38 42 47 51 58 60 64 71 70 72 75 76 79 81 82 81 80 79 76 76 77 78 81 86 91 96 98 99 99 99 98 97 88 79 74 72 74 79 83 84 86 86 82

GFSNGP_prec_cthk_009.txt.gz
RH
28 25 26 26 27 29 32 38 51 47 52 58 62 65 76 76 72 69 71 68 63 60 56 56 54 50 43 41 39 36 35 33 37 55 58 64 84 83 98 91 70 71 71 55
30 31 31 29 30 30 31 36 40 45 52 59 61 65 69 68 71 73 72 66 60 56 56 53 50 44 46 41 37 35 34 32 30 43 56 66 74 95 87 82 71 81 65 65
43 37 39 44 35 33 35 39 44 52 54 60 62 65 70 74 72 70 67 61 58 55 52 47 45 46 44 41 38 35 32 30 37 46 48 60 69 91 94 90 81 79 66 47
46 41 42 38 31 31 36 40 44 52 59 61 63 68 72 71 72 69 66 62 58 51 46 45 47 43 39 38 35 32 27 27 33 40 43 52 77 91 97 86 79 68 48 47
50 49 35 33 32 35 39 44 49 56 60 65 70 75 75 75 73 68 64 57 49 46 46 45 41 38 37 35 31 30 30 33 38 44 48 57 79 99 88 72 71 55 43 52
51 50 50 40 38 38 42 52 54 56 64 70 71 80 78 72 67 64 56 51 48 49 47 44 41 39 35 31 33 37 41 45 49 48 56 62 62 74 72 77 61 44 48 50
51 52 45 34 38 38 52 49 56 59 66 69 73 75 74 70 65 60 55 53 55 50 48 43 40 35 31 34 39 41 44 50 50 55 64 71 77 82 84 67 46 46 48 53
52 56 54 34 39 44 44 51 59 64 69 74 76 76 74 68 65 59 58 58 55 50 45 39 35 31 33 39 42 43 46 49 52 63 73 80 87 91 78 46 38 45 49 51
45 44 36 41 44 46 45 52 63 70 76 77 79 79 76 72 64 60 59 57 49 44 39 35 33 32 36 38 40 44 49 51 57 67 73 81 87 83 50 41 41 46 49 51
47 44 45 52 50 49 53 60 70 76 78 82 82 77 72 64 60 58 54 46 45 39 33 29 27 30 35 38 42 45 51 55 62 69 75 74 66 56 47 43 42 48 51 51
44 45 49 51 51 55 62 69 80 82 84 85 78 75 66 60 57 51 48 43 34 29 25 26 27 27 34 37 42 48 58 60 65 69 66 53 50 51 49 45 44 52 52 54
47 46 49 52 57 64 74 83 83 83 80 76 71 62 58 55 51 46 39 34 28 24 24 26 28 29 32 39 47 55 63 64 66 65 57 49 51 55 51 46 48 54 53 54
51 54 52 61 67 75 82 80 78 78 72 67 63 56 51 47 44 39 32 28 26 25 26 27 28 31 37 48 55 61 68 70 68 59 54 48 48 51 47 46 54 54 54 57
51 53 59 70 80 81 79 80 77 74 68 60 51 49 45 43 37 33 30 29 26 25 26 26 28 36 45 56 61 67 71 74 69 59 57 49 48 50 50 51 53 55 58 59
53 60 76 79 84 85 83 77 74 68 56 49 50 45 39 36 34 32 30 27 25 26 27 30 34 42 54 62 64 70 73 76 68 60 58 51 49 51 53 57 57 59 61 60
63 74 86 89 87 85 80 78 69 56 53 51 45 39 37 36 34 31 27 26 28 27 29 34 39 50 62 64 67 72 78 76 66 62 58 51 52 53 57 58 61 62 61 60
84 94 93 88 86 84 79 67 58 55 51 45 39 39 38 36 32 27 26 28 29 30 36 41 46 58 67 67 71 78 77 67 63 60 59 51 54 57 60 59 63 64 61 58
94 95 93 89 88 79 63 59 55 50 44 39 40 40 36 32 30 29 29 29 30 33 41 47 54 65 71 72 75 78 66 61 63 60 57 56 57 60 59 60 65 62 60 58
96 93 91 87 70 62 60 54 49 41 40 43 38 33 31 32 33 33 34 37 41 41 44 52 58 71 76 78 79 74 63 58 61 60 58 55 55 59 57 62 65 62 60 57
88 84 72 63 65 57 52 43 39 43 41 35 32 30 31 34 38 39 44 46 53 54 55 57 62 70 79 83 84 74 64 64 66 63 55 54 54 54 58 64 64 63 60 58
77 69 70 62 54 48 42 43 41 36 30 30 31 34 39 43 47 51 51 50 56 60 64 64 67 73 81 88 88 79 76 76 73 68 59 54 55 58 60 62 63 65 63 60
73 66 60 53 47 43 39 36 32 29 29 32 38 45 50 54 57 54 60 63 61 65 66 66 69 76 83 88 86 84 84 83 80 75 66 60 57 57 59 63 65 67 68 64
63 59 52 44 39 36 31 29 30 35 37 43 47 56 59 61 63 63 57 68 70 72 73 72 74 80 84 90 91 88 87 89 90 89 81 68 65 63 63 65 68 71 72 70
53 44 38 36 34 31 29 30 34 40 46 50 57 64 69 70 60 70 70 71 75 77 77 76 78 82 86 89 92 94 93 94 95 97 95 83 73 70 68 68 71 75 77 77
39 36 35 33 32 31 34 37 40 45 52 58 71 76 81 78 75 72 73 75 78 79 76 77 79 81 83 86 90 94 97 98 98 98 98 97 91 79 74 73 74 78 81 82
36 35 35 36 38 42 46 50 54 56 63 70 74 79 77 77 80 81 79 82 84 82 80 80 81 84 86 88 90 92 95 97 98 99 99 99 98 90 81 79 78 82 86 87
43 42 42 44 48 53 57 61 68 71 71 71 68 74 78 79 84 88 89 86 84 84 82 81 81 82 83 83 84 86 89 92 96 98 99 99 99 94 86 84 85 86 90 92

GFSNGP_prec_cthk_015.txt.gz
RH
31 29 25 24 25 30 32 32 35 30 33 33 40 45 47 51 56 60 64 66 65 65 73 77 73 65 58 52 46 46 41 37 32 28 28 30 31 30 28 36 51 66 65 76
32 31 30 26 26 28 28 28 32 31 32 33 38 45 51 55 59 63 67 68 69 74 73 71 66 59 53 51 48 44 41 36 30 30 32 34 34 28 33 40 50 55 75 78
30 36 32 28 26 27 26 26 27 33 31 37 43 49 53 58 61 65 67 70 70 68 65 64 60 57 54 49 45 44 39 34 32 37 38 36 34 31 36 43 54 70 73 73
38 36 32 22 25 26 27 27 31 32 34 38 44 51 55 57 62 66 70 67 65 66 66 64 57 54 49 48 48 41 36 34 38 38 34 35 35 38 45 52 60 69 78 84
42 43 30 23 27 29 30 29 33 34 37 40 45 52 54 60 63 67 68 66 64 66 66 57 53 51 51 49 42 36 35 35 34 34 34 34 38 45 51 59 67 76 81 86
51 39 34 23 27 28 30 37 32 35 39 41 47 56 55 58 63 67 65 64 67 68 59 54 54 52 49 40 34 33 31 32 35 34 33 37 43 49 57 67 76 81 80 60
53 45 36 24 29 31 40 30 32 36 38 42 49 54 56 63 70 70 68 68 69 59 55 56 53 49 38 33 32 32 32 32 32 34 38 42 46 55 63 70 68 61 57 53
51 52 38 25 33 36 30 29 35 39 42 45 55 60 65 70 73 73 71 70 62 59 57 55 48 37 33 32 32 32 29 29 34 41 46 50 52 60 65 63 62 55 54 49
41 37 27 29 29 30 33 36 41 45 49 56 62 67 69 77 76 74 73 67 63 59 56 46 38 34 33 32 30 27 28 32 42 48 54 56 58 62 61 55 55 57 51 47
40 32 33 35 36 37 41 45 48 51 58 62 67 73 81 83 77 74 71 65 60 55 44 38 36 36 35 31 27 28 31 36 46 53 61 62 65 66 60 54 57 57 50 48
45 41 42 41 42 45 48 50 56 62 63 67 74 84 84 78 76 72 67 61 55 46 40 38 38 35 32 28 28 30 35 42 49 57 65 67 69 65 59 57 57 56 51 51
47 43 45 44 46 50 55 58 60 61 66 72 82 81 79 78 75 66 59 56 48 43 41 39 36 30 28 28 29 34 38 47 56 61 68 73 75 66 60 58 57 54 52 57
48 50 49 51 55 55 55 59 63 69 76 78 84 85 82 73 62 60 56 49 45 42 40 36 30 28 28 29 33 37 44 53 58 65 72 77 74 68 64 57 57 55 56 59
59 59 58 57 57 58 64 73 80 80 83 92 93 83 74 68 68 58 49 46 44 42 37 31 29 27 29 33 37 42 51 59 64 68 75 75 67 64 65 57 58 60 61 61
60 61 60 61 63 70 79 82 83 86 96 91 82 78 75 66 56 49 48 45 44 37 33 31 29 31 36 39 43 51 57 63 70 72 76 71 68 63 65 63 59 61 62 61
61 65 68 73 76 80 84 83 88 98 88 82 78 73 64 55 49 49 46 44 38 33 32 32 33 38 42 47 53 57 62 69 78 78 74 68 68 65 66 65 59 60 58 62
73 78 79 81 86 88 91 95 98 87 81 78 73 64 54 50 48 46 45 39 36 35 35 37 39 43 46 52 56 61 67 74 85 82 71 68 67 66 65 61 58 58 55 61
78 82 84 87 93 95 97 94 84 79 78 69 60 54 50 48 46 45 38 36 36 38 42 45 46 47 51 57 61 65 71 78 89 90 75 74 73 68 63 61 60 61 57 61
85 86 91 94 92 90 84 79 77 72 64 60 54 51 48 47 42 38 37 38 39 39 44 50 52 54 55 59 64 70 73 80 91 91 77 74 77 75 68 64 61 62 60 61
88 89 91 87 86 84 78 71 65 63 59 53 52 49 45 39 38 39 40 40 48 49 51 54 56 58 59 61 67 71 75 83 90 90 85 81 83 85 80 72 67 65 63 63
86 84 84 82 76 72 68 66 63 58 55 51 48 42 40 40 41 45 45 45 51 57 57 57 59 65 64 65 70 73 76 82 88 89 87 87 90 95 95 88 78 71 69 68
87 84 79 76 73 70 66 62 57 51 47 43 43 42 41 41 45 47 53 56 57 59 58 60 63 69 68 71 73 74 75 80 86 90 91 91 93 96 98 99 96 84 79 74
92 87 79 74 69 63 56 52 50 48 47 45 42 42 45 47 48 52 51 57 57 61 60 60 67 74 75 77 78 77 79 83 87 91 94 97 97 96 98 99 99 99 96 88
76 72 66 61 56 53 51 49 47 45 43 43 47 51 52 51 50 56 58 58 59 63 62 63 69 79 83 83 81 80 82 85 84 81 80 82 85 88 92 97 98 99 99 98
55 53 52 51 48 46 45 45 45 48 51 53 54 55 58 59 58 56 63 62 62 66 62 68 74 80 85 84 83 79 76 70 67 64 63 65 70 76 80 86 92 96 99 99
43 42 43 47 50 50 51 52 51 52 55 53 51 51 53 56 57 56 56 60 64 67 69 77 81 83 84 84 81 77 70 65 61 56 52 53 56 60 65 74 86 92 97 99
43 44 45 47 50 52 55 55 53 47 47 48 45 44 51 51 51 54 57 64 70 76 78 80 85 87 86 85 81 75 67 62 56 52 49 47 50 53 58 69 78 87 92 97

GFSNGP_prec_cthk_021.txt.gz
RH
38 36 31 26 27 30 27 25 28 22 23 20 21 24 28 33 37 40 45 50 57 62 67 70 72 72 74 73 66 61 59 58 55 46 44 41 39 34 30 29 31 33 36 38
38 38 35 31 27 26 28 27 25 25 24 21 22 25 29 31 36 40 45 51 58 62 64 68 71 74 68 67 65 60 59 58 50 45 39 37 34 31 29 30 32 36 40 45
35 36 33 32 25 25 25 24 23 28 21 24 25 27 28 32 36 40 45 51 58 62 63 70 76 64 66 67 62 61 61 55 47 40 37 35 33 29 29 31 33 38 44 49
36 35 33 21 23 23 24 24 24 24 24 26 28 29 29 31 34 38 45 52 59 62 64 71 63 65 70 66 62 63 58 46 40 39 36 33 29 30 32 32 35 42 48 55
39 34 25 18 20 24 28 23 23 24 26 31 33 34 31 32 34 40 49 56 60 62 67 66 68 73 70 63 62 58 47 43 41 38 34 29 32 34 35 35 41 47 53 55
45 37 36 24 22 26 28 33 24 25 29 34 35 38 31 32 38 46 54 61 66 66 65 70 75 74 67 64 61 49 45 44 41 36 30 30 33 37 36 40 45 51 56 58
50 46 36 29 31 33 36 32 28 29 31 35 37 36 35 39 46 55 62 66 71 71 73 77 79 73 66 64 53 48 47 44 37 32 30 29 33 37 41 45 49 55 60 58
50 49 43 30 34 37 32 31 30 32 34 36 38 42 47 53 60 65 69 71 70 80 83 82 77 70 68 57 51 49 46 38 32 29 29 31 36 40 46 50 55 60 62 59
40 37 31 32 33 33 34 35 36 39 42 46 50 54 60 63 68 72 72 72 84 84 81 77 71 68 59 51 52 47 38 33 30 31 31 35 38 45 50 55 61 64 62 58
38 33 35 35 37 38 40 43 45 48 50 52 55 61 68 72 79 77 79 87 86 81 81 73 72 59 56 55 47 39 36 34 33 35 34 38 41 48 54 60 67 66 57 54
43 41 42 42 43 45 47 49 50 52 56 60 64 68 71 77 75 82 91 92 83 84 77 71 60 60 56 48 40 38 37 35 37 36 38 40 46 52 59 65 72 63 56 55
49 43 47 48 51 55 58 63 65 64 63 65 67 69 74 80 87 95 87 86 81 81 70 61 63 56 48 41 40 40 37 39 39 38 39 45 50 56 64 69 68 61 59 56
50 54 57 61 67 67 66 67 66 65 65 68 73 81 87 96 96 90 84 86 80 68 67 63 54 48 45 43 41 40 41 42 38 41 45 50 54 62 70 73 67 65 64 61
64 65 65 67 67 68 67 67 69 75 78 81 86 94 95 96 96 93 88 77 69 68 63 54 50 47 44 44 43 42 42 39 40 44 49 54 59 67 77 75 71 69 66 65
66 68 69 71 72 73 76 80 82 86 89 92 94 94 95 96 94 86 76 69 67 64 57 53 50 48 46 43 43 42 40 41 47 50 54 56 62 72 80 70 69 69 65 63
64 68 75 79 82 86 87 89 92 93 93 93 93 96 95 88 80 73 71 69 62 56 56 54 50 48 46 46 43 41 42 47 50 51 56 59 67 76 82 72 71 72 68 64
78 82 85 86 87 89 91 91 93 93 92 91 86 84 81 74 72 70 66 60 55 56 55 52 50 50 49 46 45 44 47 49 51 56 57 61 69 78 83 72 74 77 73 69
87 88 86 86 87 87 88 88 85 83 82 81 79 76 73 72 68 63 58 55 55 55 54 53 52 51 52 52 50 51 53 53 55 58 60 64 70 78 83 74 73 80 86 81
84 84 86 84 82 81 80 78 78 76 73 71 67 65 63 60 58 57 56 54 53 51 53 56 54 56 56 57 59 57 58 57 60 63 67 70 72 79 85 84 82 82 88 94
77 75 72 71 72 72 71 69 67 66 62 59 56 53 52 53 53 52 52 51 51 53 52 54 57 60 62 58 59 61 61 63 64 69 74 78 78 79 86 91 92 89 88 92
85 83 82 80 74 71 69 66 61 56 52 52 50 49 48 48 48 47 45 44 47 53 53 55 59 59 61 59 58 62 62 68 70 73 80 85 87 89 90 93 87 84 83 83
88 83 76 72 68 62 59 54 51 48 47 46 45 43 41 40 42 43 46 50 46 49 50 54 59 59 56 53 53 58 67 73 76 78 82 85 88 90 88 80 75 73 71 70
74 74 72 65 58 54 49 43 42 41 41 41 42 44 45 44 47 48 43 47 51 53 55 57 59 57 56 57 61 67 71 77 81 84 82 83 82 80 73 67 65 62 58 57
68 61 56 50 45 43 42 42 42 41 39 37 35 35 35 33 32 41 45 46 48 51 52 55 58 57 59 63 68 72 76 81 85 85 83 83 81 74 70 65 60 60 61 58
49 47 45 45 45 44 42 41 39 38 34 32 32 33 35 40 43 38 40 42 45 50 52 58 60 60 68 71 73 74 79 84 86 86 86 85 80 73 69 62 58 60 60 58
53 51 51 49 48 47 47 47 44 38 35 31 29 30 30 33 36 41 42 45 49 55 60 66 68 68 74 78 79 78 80 85 86 90 88 85 79 71 68 63 61 63 63 58
58 59 58 56 56 55 53 46 37 32 30 28 25 26 27 27 28 30 35 38 44 51 58 65 70 74 77 81 81 82 84 86 88 91 87 84 78 73 71 70 70 67 65 63

GFSNGP_prec_cthk_024.txt.gz
RH
40 37 33 28 25 24 23 22 25 17 18 14 18 18 20 22 26 31 36 41 46 50 53 58 63 62 65 76 65 66 64 61 58 56 49 51 50 50 48 39 39 41 40 41
37 35 33 31 26 24 24 23 23 20 18 17 19 20 21 23 26 30 34 40 45 49 53 58 62 62 70 78 59 58 58 60 58 51 53 53 52 47 40 39 41 39 40 43
33 34 33 38 27 24 23 23 24 25 20 22 23 23 24 26 28 30 34 38 42 47 53 60 62 69 79 65 63 60 63 62 58 56 55 54 49 40 41 42 37 38 42 43
39 36 48 21 21 21 22 22 21 23 22 25 25 26 28 29 30 30 32 37 42 49 55 62 66 73 66 66 65 67 66 65 59 58 56 51 45 40 43 42 40 40 47 46
47 32 23 17 19 21 25 21 23 23 23 24 29 31 31 30 31 33 36 40 47 55 62 66 66 75 66 69 75 72 70 62 59 58 55 46 40 40 43 44 41 42 49 52
44 52 55 25 25 27 28 29 24 24 27 30 34 37 33 32 32 36 41 48 55 60 65 63 78 65 75 79 76 71 65 58 57 57 49 42 40 40 40 44 41 44 51 55
46 51 34 28 27 29 32 31 28 29 28 30 34 34 36 38 42 48 52 56 60 66 70 70 70 82 85 82 73 66 58 60 56 50 44 41 39 39 42 42 44 48 49 58
46 55 51 27 31 35 32 30 30 32 35 37 39 44 48 52 53 56 60 65 72 75 72 75 84 85 82 75 69 62 62 55 50 46 42 41 41 42 43 42 48 52 57 62
36 35 31 32 31 33 35 35 37 40 44 46 48 49 51 55 62 65 66 66 74 86 85 92 86 86 77 73 68 65 55 49 48 46 44 42 39 40 42 48 52 58 65 66
36 32 32 34 36 39 41 43 45 46 47 50 55 62 63 65 65 67 72 77 85 88 94 90 87 82 73 71 67 54 49 50 48 45 43 41 42 41 43 52 57 63 69 63
39 36 39 41 44 45 49 52 54 58 63 67 68 68 69 67 70 75 84 89 97 94 94 85 81 74 74 65 57 52 54 51 48 45 42 46 47 42 47 54 61 68 68 63
45 45 45 47 53 56 57 61 65 67 68 69 69 68 72 77 82 84 92 96 95 88 86 79 79 73 63 61 56 52 47 47 47 43 45 44 43 45 50 57 63 69 64 61
52 52 55 58 62 65 67 67 66 66 66 68 74 80 84 88 91 93 92 93 93 86 81 79 72 65 63 58 53 48 47 44 45 45 46 44 44 51 55 59 66 74 67 65
58 60 63 65 66 65 67 68 73 80 82 83 85 88 92 93 94 94 95 93 86 81 77 73 67 61 58 57 56 51 47 46 46 46 43 46 52 54 58 64 72 76 70 67
60 59 62 63 66 70 76 81 85 85 86 89 89 90 92 92 93 91 86 83 81 78 70 65 63 62 59 54 53 52 50 49 45 42 45 49 52 56 59 66 75 80 71 69
66 69 74 79 81 84 87 87 86 86 85 86 88 86 85 82 80 81 79 74 69 64 60 56 54 54 54 56 56 54 51 45 44 48 51 54 59 62 62 69 78 82 71 72
76 82 87 88 88 86 86 85 83 81 80 79 79 78 74 70 68 65 62 58 54 49 48 49 49 52 54 56 54 53 54 51 50 54 56 59 62 67 68 72 80 82 73 74
86 87 85 81 79 79 77 77 79 74 71 68 65 60 57 55 55 51 49 48 45 42 42 44 44 47 51 55 56 56 55 55 55 59 60 62 67 72 76 77 82 86 81 79
83 81 80 79 80 78 75 69 64 60 58 57 57 56 54 51 48 44 42 40 39 38 38 43 45 48 51 54 56 56 55 57 58 61 65 66 70 76 82 85 84 88 93 92
76 72 70 70 69 66 65 63 57 54 53 51 48 43 41 36 34 34 34 35 38 40 41 43 45 45 47 51 54 56 56 52 52 57 62 70 75 78 85 90 93 92 94 95
79 78 72 65 60 58 55 52 49 47 44 43 40 39 38 37 38 38 38 38 42 44 44 44 45 48 50 53 56 57 53 54 58 61 66 75 81 81 85 90 95 94 92 81
73 64 60 61 58 52 45 41 38 38 38 40 41 41 40 39 37 35 37 40 38 40 43 45 48 55 56 58 60 58 61 61 66 71 75 79 84 84 85 86 87 86 77 70
63 61 56 50 45 41 41 41 38 37 38 39 38 37 36 35 35 35 32 36 36 36 37 40 44 49 58 64 66 65 68 71 73 75 80 84 86 89 86 82 81 77 71 68
52 48 46 44 44 43 42 41 42 44 44 42 40 39 36 33 29 35 36 34 35 37 39 42 46 50 55 64 67 69 73 77 78 78 82 86 87 91 89 85 79 73 69 62
52 50 47 45 45 46 46 46 48 48 45 41 35 29 25 24 26 20 21 24 26 27 29 34 43 49 58 66 73 74 76 79 80 81 84 87 88 91 89 83 77 72 68 65
55 51 51 53 55 55 55 54 52 45 37 32 27 25 24 25 26 24 24 26 28 31 36 36 41 51 57 65 73 77 80 82 84 85 86 87 89 91 88 84 80 76 72 73
60 62 66 67 65 63 59 52 43 35 29 26 25 24 28 28 27 28 30 32 34 36 38 43 47 54 61 70 73 80 81 84 88 88 89 88 88 88 85 84 81 79 80 79

GFSNGP_prec_cthk_030.txt.gz
RH
29 40 52 47 41 37 34 31 35 27 25 26 26 27 28 29 27 27 26 38 45 47 53 57 54 55 60 59 58 58 68 75 78 82 72 89 76 71 64 66 66 70 65 65
38 36 38 36 37 33 29 29 28 25 26 26 29 27 26 27 27 27 30 30 40 46 47 53 57 59 59 58 58 61 74 79 74 87 86 79 74 69 60 69 80 72 70 66
42 35 33 36 29 27 25 26 29 31 28 29 28 28 30 28 29 28 29 32 34 42 45 51 56 63 68 64 65 66 78 80 84 80 86 78 77 67 75 80 72 64 67 69
51 46 48 25 24 24 24 25 26 28 29 28 29 28 27 26 28 30 34 37 36 35 40 48 58 64 67 68 70 76 80 79 81 84 85 86 71 76 77 68 68 72 72 66
62 46 31 27 26 24 25 25 26 25 25 26 27 27 30 33 35 35 33 33 35 39 46 52 60 62 69 72 73 76 79 85 88 89 88 76 77 74 70 71 67 65 68 69
47 55 55 36 30 27 25 32 29 28 29 29 27 33 33 37 37 38 39 40 43 46 51 61 67 68 68 72 78 83 84 87 87 91 81 83 75 77 73 68 70 71 70 69
54 57 45 34 31 28 33 40 34 34 32 30 32 33 38 40 41 42 47 52 57 62 67 67 66 67 72 77 81 90 92 92 88 92 83 82 81 72 70 68 70 67 64 55
53 62 56 30 29 31 38 35 32 31 31 33 37 38 40 45 52 55 58 62 62 60 61 64 72 73 80 87 92 93 94 95 88 82 83 78 73 72 71 66 62 59 53 47
40 44 37 33 33 32 33 33 33 35 38 40 43 47 52 56 61 63 64 61 57 62 73 78 83 87 90 94 97 95 91 84 84 80 77 73 73 69 59 53 47 44 42 44
37 30 36 37 34 36 38 39 42 43 45 49 53 57 60 64 63 60 59 63 71 76 78 81 87 90 91 92 92 90 87 83 78 74 70 65 54 50 50 49 45 43 42 46
36 35 37 40 45 45 45 47 45 48 54 55 58 60 60 58 59 65 73 77 77 79 84 89 89 89 91 90 83 75 72 66 61 57 50 44 43 43 41 43 46 45 49 53
46 44 42 48 48 48 48 48 49 54 56 57 57 58 61 68 74 77 78 80 83 84 84 84 83 80 75 73 64 59 59 53 47 41 41 44 42 37 38 40 45 48 55 60
48 48 50 50 47 48 51 56 60 60 59 61 64 67 72 78 81 81 79 77 78 79 74 72 68 59 53 50 48 48 47 42 40 42 40 42 43 43 41 40 47 52 56 63
47 48 53 55 55 57 61 62 61 61 65 69 71 72 72 74 74 74 75 75 70 61 52 48 44 40 36 32 32 34 36 35 38 42 46 48 49 48 47 47 46 51 58 61
50 53 56 61 66 65 65 65 67 70 72 73 75 74 73 72 72 71 63 52 40 35 35 33 29 25 26 30 32 34 38 42 46 49 50 50 51 50 53 54 54 55 60 64
58 62 65 67 67 68 69 70 72 76 78 77 76 72 69 64 56 45 37 34 30 25 22 21 23 25 28 34 38 42 47 49 54 58 58 57 57 58 58 61 61 60 60 66
66 70 71 71 72 74 77 81 81 79 77 66 60 56 49 41 32 30 27 25 24 24 26 27 31 38 42 43 47 50 51 58 58 60 62 60 62 63 63 63 63 65 62 64
70 72 75 77 79 81 82 81 72 66 60 56 50 42 33 27 25 26 26 26 27 29 32 38 42 45 49 51 52 49 48 49 52 59 63 65 63 62 56 54 60 67 68 71
73 75 78 82 82 82 78 69 65 62 54 48 40 32 29 28 27 26 24 25 27 33 37 39 42 42 38 35 40 41 43 46 50 55 61 63 71 70 63 63 62 69 74 77
82 85 85 83 79 72 67 68 63 54 45 36 29 27 27 27 26 26 28 32 35 37 39 40 37 30 28 30 30 28 27 30 34 39 44 75 89 86 70 65 65 73 78 82
86 84 80 77 73 71 64 58 51 38 29 28 29 30 29 29 30 31 34 35 40 40 39 31 26 30 29 26 23 22 22 25 33 37 44 69 79 79 68 75 74 81 83 87
90 83 78 76 73 64 53 41 32 32 33 34 34 33 33 33 34 37 40 43 39 38 33 31 33 28 26 24 26 30 33 40 44 48 49 51 65 72 77 82 82 82 85 88
83 78 74 68 59 45 38 37 37 39 40 39 39 40 40 41 43 43 45 43 42 36 30 31 28 26 24 25 30 31 32 39 46 54 60 71 79 80 80 84 84 85 85 87
75 66 58 51 47 45 46 46 47 49 50 50 52 50 48 46 48 50 46 42 37 31 30 31 25 23 25 28 32 36 42 43 45 50 59 69 74 80 83 85 86 86 88 87
61 58 57 57 56 55 55 57 59 59 60 58 60 56 54 56 52 46 42 37 33 32 31 29 29 28 30 32 37 41 47 52 55 58 62 66 71 78 84 89 88 90 87 83
68 66 66 65 64 64 66 67 67 67 63 67 66 59 58 52 45 39 36 35 33 30 31 32 33 34 36 38 43 47 53 58 63 68 70 73 79 82 84 90 91 89 87 84
74 76 75 75 76 75 74 71 72 69 72 71 64 55 51 44 39 38 37 33 32 32 33 34 37 39 41 46 49 52 56 63 68 73 78 80 83 87 92 93 94 93 90 88

GFSNGP_prec_cthk_033.txt.gz
RH
25 27 39 44 56 46 41 37 42 37 35 26 36 34 32 32 32 31 33 38 44 45 50 58 63 66 74 78 78 73 74 71 73 73 80 83 79 78 86 84 79 65 77 78
27 27 35 38 45 44 41 37 34 35 35 32 35 32 30 29 29 31 35 35 29 36 47 57 57 63 68 68 70 74 72 78 80 77 84 84 81 91 91 82 76 83 74 78
40 34 32 36 30 30 32 35 33 33 35 34 32 30 30 30 30 29 28 29 32 35 42 45 48 50 55 65 76 76 82 84 82 85 88 88 90 94 87 81 84 79 85 83
52 42 40 29 26 26 28 30 30 30 31 31 32 32 30 30 29 29 30 31 33 32 33 36 41 50 57 70 75 80 82 80 85 89 92 93 95 90 86 86 84 84 80 78
56 52 37 33 29 27 27 30 27 27 29 29 30 30 31 31 32 32 32 33 36 38 40 43 49 57 65 71 74 74 78 85 88 92 93 92 91 88 90 86 82 78 76 75
55 54 48 39 32 28 27 37 30 30 30 29 28 34 35 33 33 36 38 39 42 43 47 57 61 63 65 69 75 81 86 88 92 94 94 95 93 88 85 82 76 71 71 69
60 57 47 36 32 30 36 38 31 30 31 31 31 32 33 37 41 40 40 45 51 57 60 60 63 67 75 80 82 86 89 96 97 95 92 89 88 84 77 70 64 59 52 49
64 64 54 32 29 30 35 32 32 32 32 33 34 36 39 42 44 45 49 54 58 60 63 68 74 77 83 86 90 93 93 94 91 89 87 78 71 67 63 58 55 48 45 42
41 43 32 28 29 32 32 33 33 35 36 37 38 42 45 49 52 53 53 54 56 65 73 78 82 83 83 87 90 90 87 84 80 70 62 54 57 58 52 48 46 43 41 43
39 37 36 34 34 34 34 34 37 38 39 40 43 47 52 56 55 54 57 61 66 72 75 77 79 80 81 80 76 71 64 55 46 43 45 44 48 42 38 37 38 40 43 46
40 39 40 42 42 41 43 43 41 46 45 45 49 54 56 57 59 62 67 69 72 75 77 75 73 73 71 63 50 44 39 34 30 30 29 28 32 34 38 43 46 46 46 50
45 38 37 44 45 45 46 50 50 49 50 53 57 57 59 62 67 73 74 76 76 74 72 70 65 56 46 39 33 28 25 23 23 25 29 33 36 40 46 48 46 47 48 52
44 42 44 48 50 50 49 51 52 55 58 59 60 62 67 71 73 73 75 75 72 67 62 54 45 35 29 26 22 20 20 23 26 30 36 41 46 47 45 45 47 47 49 52
51 51 53 50 53 53 53 57 59 59 61 61 64 67 69 70 74 74 70 67 61 50 42 35 29 26 25 24 24 25 27 29 33 39 45 49 51 53 57 55 49 44 52 55
54 54 54 55 57 61 63 63 63 64 65 68 71 73 74 74 72 67 61 53 44 35 28 24 23 24 24 26 28 31 35 40 45 50 53 56 62 66 70 66 58 53 48 51
60 61 62 64 66 68 68 69 69 74 76 76 74 69 66 64 60 56 48 37 28 25 25 26 28 30 33 35 38 41 45 50 55 56 55 56 57 60 63 70 64 59 50 47
62 66 70 72 71 72 74 74 76 76 74 64 61 60 57 54 49 42 35 29 26 26 29 31 31 34 37 39 40 43 45 46 44 45 45 44 50 55 65 67 69 63 64 63
71 73 75 75 76 77 78 77 76 69 66 66 64 58 55 48 41 30 25 25 26 29 32 31 30 30 30 28 28 32 36 35 30 26 23 29 39 48 62 62 63 81 80 74
77 77 76 77 78 78 78 75 73 73 69 66 61 54 45 35 27 27 27 27 27 29 30 32 31 28 29 32 36 36 30 26 26 25 23 21 22 27 31 37 83 87 80 77
79 80 80 83 86 79 78 79 76 72 67 62 53 40 31 29 29 29 29 31 34 36 35 31 31 31 34 34 32 27 28 28 27 31 32 37 38 35 36 72 88 83 83 83
84 87 87 81 82 82 81 78 74 67 58 44 34 33 33 33 32 32 34 38 40 39 36 34 34 33 32 29 25 25 27 27 28 29 38 44 43 44 46 55 76 79 80 82
87 87 88 85 81 79 77 70 60 47 37 37 39 39 38 38 39 43 45 45 43 39 37 35 32 30 28 27 26 25 26 28 32 35 38 42 47 55 62 68 77 83 86 84
94 90 87 83 78 72 64 52 43 42 43 44 45 46 46 49 51 49 48 47 44 42 36 32 29 28 28 27 26 27 29 31 35 39 43 49 51 57 68 77 81 89 90 90
89 87 82 77 67 56 51 48 49 53 54 53 55 56 54 52 53 51 50 47 42 37 34 32 31 30 28 28 29 31 34 37 39 43 48 53 58 62 64 76 81 87 91 91
79 76 70 63 61 61 61 60 61 62 62 62 62 59 56 55 56 51 46 41 38 36 35 34 33 31 32 32 34 37 40 42 44 48 52 58 64 68 72 76 77 83 86 92
73 69 69 70 71 70 69 68 67 66 65 65 64 60 58 60 52 44 39 38 35 36 35 34 34 34 35 37 40 42 44 47 50 54 57 61 66 75 79 81 85 88 92 94
75 76 76 77 78 77 72 74 72 68 66 68 67 62 57 47 41 37 36 36 34 35 36 36 37 37 39 43 45 46 50 53 57 62 66 71 74 76 78 84 88 90 93 95